Location: Newark
(25.0000°N, 73.5000°E)
Time: 03:51:26
(UTC+00:00)

Tianhe-1 - Visible Passes

Search period start: 22 June 2021 00:00
Search period end: 02 July 2021 00:00
Orbit: 375 x 386 km, 41.5° (Epoch: 21 June)

Date Brightness Start Highest point End Pass type
(mag) Time Alt. Az. Time Alt. Az. Time Alt. Az.
27 Jun 4.1 23:46:22 10° NNW 23:48:34 17° NNE 23:50:47 10° ENE visible
28 Jun 4.5 22:46:40 10° N 22:47:21 10° NNE 22:48:02 10° NE visible
29 Jun 3.1 23:20:37 10° NNW 23:23:26 30° NNE 23:26:16 10° E visible
30 Jun 4.1 22:20:12 10° NNW 22:22:18 17° NNE 22:24:25 10° ENE visible
01 Jul 2.0 14:48:12 10° SSW 14:50:52 27° SE 14:52:57 14° E visible
01 Jul 4.3 16:25:01 10° W 16:25:16 11° W 16:25:16 11° W visible
01 Jul 1.4 22:55:14 11° NW 22:58:14 64° NE 23:01:20 10° ESE visible
